Regional Weather Roundup
Issued by NWS

Home | Current Version | Previous Version | Graphics & Text | Print | Product List | Glossary On
Versions: 1 2 3 4 5 6 7 8 9 10 11 12 13 14 15 16 17 18 19 20 21 22 23 24 25 26 27 28 29 30 31 32 33 34 35 36 37 38 39 40 41 42 43 44 45 46 47 48 49 50
000
ASUS45 KBOI 301910
RWRID

IDAHO REGIONAL WEATHER ROUNDUP
NATIONAL WEATHER SERVICE BOISE ID
100 PM MDT THU JUL 30 2015

NOTE: "FAIR" INDICATES FEW OR NO CLOUDS BELOW 12000 FEET
WITH NO SIGNIFICANT WEATHER AND/OR OBSTRUCTIONS TO VISIBILITY

IDZ012-014-302000-
SOUTHWEST IDAHO


CITY           SKY/WX    TMP DP  RH WIND       PRES   REMARKS
BOISE          SUNNY     89  33  13 E5        30.22F
CALDWELL       SUNNY     86  39  19 N5        30.23F
$$

IDZ016-017-302000-
SOUTHCENTRAL IDAHO


CITY           SKY/WX    TMP DP  RH WIND       PRES   REMARKS
BURLEY         SUNNY     85  39  19 E8        30.28F
JEROME         SUNNY     83  41  22 NW3       30.30F
TWIN FALLS     SUNNY     86  36  16 NE9       30.27F
$$

IDZ019>023-302000-
SOUTHEAST IDAHO


CITY           SKY/WX    TMP DP  RH WIND       PRES   REMARKS
IDAHO FALLS    SUNNY     82  35  18 W8        30.35F
POCATELLO      SUNNY     83  40  21 NW5       30.34F
REXBURG        SUNNY     82  35  18 VRB5      30.36F
$$

IDZ006-010-011-018-031-032-302000-
CENTRAL IDAHO MOUNTAINS


CITY           SKY/WX    TMP DP  RH WIND       PRES   REMARKS
MCCALL         SUNNY     80  31  16 S7        30.34F
HAILEY         SUNNY     79  39  24 SE12      30.39S
STANLEY          N/A     77  30  17 NW6       30.44F
SALMON         SUNNY     75  43  31 N3        30.28F
CHALLIS        SUNNY     79  39  23 N3        30.35F
$$

IDZ002-004-006-007-026-302000-
NORTHERN IDAHO


CITY           SKY/WX    TMP DP  RH WIND       PRES   REMARKS
LEWISTON       SUNNY     89  41  18 E7        30.13F
LOWELL           N/A     84  47  27 CALM      30.16F
COEUR D`ALENE  SUNNY     88  37  16 S5        30.18F
MULLAN PASS    SUNNY     72  32  23 CALM      30.41S
$$


USA.gov is the U.S. government's official web portal to all federal, state and local government web resources and services.